Juneau, AK

6:20 AM AKST on February 24, 2017 (GMT -0900)
Juneau International

Weather History for PAJN - March, 2013

Change the Weather History Date:

Saturday, March 30, 2013

  Actual Average Record
Temperature  
Mean Temperature 37 °F 37 °F  
Max Temperature 40 °F 43 °F 54 °F (1993)
Min Temperature 33 °F 30 °F 10 °F (1963)
Degree Days  
Heating Degree Days 28 28  
Month to date heating degree days 1059 938  
Since 1 July heating degree days 7130 6775  
Cooling Degree Days 0 0  
Month to date cooling degree days 0 0  
Year to date cooling degree days 0 0  
Moisture  
Dew Point 35 °F    
Average Humidity 93    
Maximum Humidity 100    
Minimum Humidity 85    
Precipitation  
Precipitation 0.36 in 0.10 in 0.46 in (2011)
Month to date precipitation 2.36 3.67  
Year to date precipitation 16.67 13.15  
Snow  
Snow T in 0.20 in 5.80 in (1986)
Month to date snowfall 8.3 11.4  
Since 1 July snowfall 71.7 85.4  
Snow Depth 0.00 in    
Sea Level Pressure  
Sea Level Pressure 30.31 in    
Wind  
Wind Speed 14 mph (East)    
Max Wind Speed 21 mph    
Max Gust Speed 26 mph    
Visibility 7 miles    
Events Rain , Snow    
T = Trace of Precipitation, MM = Missing Value Source: NWS Daily Summary

Daily Weather History Graph

Daily Weather History Graph

Search for Another Location

Airport or City:

Trip Planner

Search our weather history database for the weather conditions in past years. The results will help you decide how hot, cold, wet, or windy it might be!

Date:

Astronomy

Mar. 30, 2013 Rise Set
Actual Time 6:30 AM AKDT 7:36 PM AKDT
Civil Twilight 5:49 AM AKDT 8:16 PM AKDT
Nautical Twilight 5:00 AM AKDT 9:07 PM AKDT
Astronomical Twilight 4:04 AM AKDT 10:03 PM AKDT
Moon No Moon Rise 7:39 AM AKDT (3/30)
Length of Visible Light 14h 27m
Length of Day
13h 05m
Waning Gibbous, 85% of the Moon is Illuminated
Mar 30
Waning Gibbous
Apr 2
Last Quarter
Apr 10
New
Apr 18
First Quarter
Apr 25
Full

Hourly Weather History & Observations

Time (AKDT) Temp. Windchill Dew Point Humidity Pressure Visibility Wind Dir Wind Speed Gust Speed Precip Events Conditions
12:53 AM 34.0 °F 24.2 °F 30.9 °F 89% 30.28 in 4.0 mi East 15.0 mph - 0.03 in Rain , Snow Light Snow
1:53 AM 35.1 °F 25.5 °F 32.0 °F 89% 30.27 in 6.0 mi East 15.0 mph - 0.04 in Rain , Snow Light Rain
2:35 AM 35.1 °F 24.1 °F 33.1 °F 92% 30.26 in 9.0 mi ESE 19.6 mph - 0.01 in Rain Light Rain
2:53 AM 35.1 °F 24.5 °F 33.1 °F 92% 30.25 in 9.0 mi ESE 18.4 mph - 0.02 in Rain Light Rain
3:53 AM 35.1 °F 25.2 °F 33.1 °F 92% 30.25 in 7.0 mi ESE 16.1 mph 23.0 mph 0.03 in Rain Light Rain
4:41 AM 35.1 °F 24.8 °F 33.1 °F 92% 30.25 in 6.0 mi ESE 17.3 mph - 0.02 in Rain Light Rain
4:53 AM 35.1 °F 24.8 °F 32.0 °F 89% 30.25 in 7.0 mi ESE 17.3 mph - 0.03 in Rain Light Rain
5:53 AM 35.1 °F 25.5 °F 33.1 °F 92% 30.26 in 8.0 mi East 15.0 mph - 0.04 in Rain Light Rain
6:53 AM 35.1 °F 25.2 °F 33.1 °F 92% 30.26 in 6.0 mi East 16.1 mph - 0.04 in Rain Rain
7:53 AM 35.1 °F 25.9 °F 33.1 °F 92% 30.27 in 4.0 mi East 13.8 mph - 0.03 in Rain Light Rain
8:11 AM 35.1 °F 25.2 °F 33.1 °F 92% 30.27 in 4.0 mi ESE 16.1 mph - 0.01 in Rain Light Rain
8:53 AM 35.1 °F 24.8 °F 33.1 °F 92% 30.28 in 5.0 mi East 17.3 mph - 0.02 in Rain Light Rain
9:53 AM 36.0 °F 26.3 °F 34.0 °F 93% 30.29 in 6.0 mi East 16.1 mph - 0.02 in Rain Light Rain
10:53 AM 37.0 °F 27.0 °F 34.0 °F 89% 30.31 in 6.0 mi East 18.4 mph - 0.03 in Rain Light Rain
11:53 AM 37.9 °F 28.2 °F 35.1 °F 89% 30.32 in 6.0 mi ESE 18.4 mph - 0.01 in Rain Light Rain
12:53 PM 39.0 °F 29.6 °F 36.0 °F 89% 30.33 in 8.0 mi ESE 18.4 mph - 0.00 in   Overcast
1:49 PM 39.2 °F 30.5 °F 35.6 °F 87% 30.33 in 10.0 mi ESE 16.1 mph - N/A   Overcast
1:53 PM 39.9 °F 31.4 °F 37.0 °F 89% 30.34 in 10.0 mi ESE 16.1 mph - N/A   Overcast
2:53 PM 39.9 °F 31.1 °F 37.0 °F 89% 30.34 in 10.0 mi ESE 17.3 mph - N/A   Overcast
3:53 PM 39.9 °F 31.8 °F 36.0 °F 86% 30.34 in 10.0 mi ESE 15.0 mph - N/A   Overcast
4:53 PM 39.0 °F 30.6 °F 37.0 °F 93% 30.35 in 6.0 mi ESE 15.0 mph - 0.00 in Rain Light Rain
5:53 PM 39.0 °F 30.6 °F 37.0 °F 93% 30.35 in 10.0 mi East 15.0 mph - 0.00 in   Overcast
6:53 PM 39.0 °F 31.4 °F 37.0 °F 93% 30.35 in 7.0 mi East 12.7 mph - N/A   Overcast
7:15 PM 39.0 °F 31.8 °F 37.0 °F 93% 30.35 in 6.0 mi East 11.5 mph - 0.00 in Rain Light Rain
7:53 PM 39.0 °F 31.8 °F 37.0 °F 93% 30.36 in 6.0 mi East 11.5 mph - 0.00 in Rain Light Rain
8:53 PM 37.9 °F 31.5 °F 37.0 °F 97% 30.36 in 6.0 mi East 9.2 mph - 0.00 in Rain Light Rain
9:53 PM 39.0 °F 33.4 °F 36.0 °F 89% 30.37 in 6.0 mi East 8.1 mph - 0.03 in Rain Light Rain
10:53 PM 37.9 °F 33.5 °F 36.0 °F 93% 30.37 in 6.0 mi ENE 5.8 mph - 0.00 in Rain Light Rain
11:53 PM 36.0 °F 33.3 °F 36.0 °F 100% 30.37 in 5.0 mi East 3.5 mph - 0.01 in Rain Light Rain